TimeHST,TemperatureF,Dew PointF,Humidity,Sea Level PressureIn,VisibilityMPH,Wind Direction,Wind SpeedMPH,Gust SpeedMPH,PrecipitationIn,Events,Conditions,WindDirDegrees,DateUTC
1:53 AM,70.0,60.1,71,30.15,10.0,ENE,4.6,-,N/A,,Mostly Cloudy,70,2013-02-21 11:53:00
3:53 AM,68.0,60.1,76,30.14,10.0,Calm,Calm,-,N/A,,Clear,0,2013-02-21 13:53:00
4:53 AM,68.0,61.0,78,30.14,10.0,Variable,3.5,-,0.00,,Clear,0,2013-02-21 14:53:00
6:53 AM,66.9,62.1,84,30.16,5.0,Variable,3.5,-,0.00,Rain,Light Rain,0,2013-02-21 16:53:00
7:53 AM,68.0,64.0,87,30.17,10.0,Variable,3.5,-,0.00,,Partly Cloudy,0,2013-02-21 17:53:00
8:12 AM,69.8,64.4,83,30.15,10.0,Variable,3.5,-,N/A,,Partly Cloudy,0,2013-02-21 18:12:00
8:53 AM,73.0,64.0,73,30.17,10.0,Variable,5.8,-,N/A,,Clear,0,2013-02-21 18:53:00
9:53 AM,75.9,63.0,64,30.17,10.0,East,8.1,16.1,N/A,,Scattered Clouds,80,2013-02-21 19:53:00
10:53 AM,77.0,64.0,64,30.17,10.0,East,12.7,20.7,N/A,,Mostly Cloudy,80,2013-02-21 20:53:00
11:53 AM,79.0,64.0,60,30.15,10.0,ENE,10.4,19.6,N/A,,Mostly Cloudy,70,2013-02-21 21:53:00
12:26 PM,78.8,64.4,61,30.14,10.0,ENE,11.5,20.7,N/A,,Overcast,60,2013-02-21 22:26:00
12:43 PM,78.8,62.6,57,30.13,10.0,East,15.0,24.2,N/A,,Scattered Clouds,80,2013-02-21 22:43:00
12:53 PM,79.0,62.1,56,30.14,10.0,ENE,12.7,24.2,N/A,,Mostly Cloudy,70,2013-02-21 22:53:00
1:53 PM,77.0,66.0,69,30.13,10.0,Variable,6.9,-,0.00,Rain,Light Rain,0,2013-02-21 23:53:00
2:53 PM,73.9,64.9,73,30.13,4.0,ENE,8.1,17.3,0.00,Rain,Light Rain,60,2013-02-22 00:53:00
3:53 PM,75.9,64.0,67,30.12,10.0,Variable,6.9,-,0.00,,Clear,0,2013-02-22 01:53:00
4:53 PM,73.9,63.0,68,30.12,10.0,ENE,10.4,19.6,N/A,,Clear,70,2013-02-22 02:53:00
5:53 PM,72.0,63.0,73,30.13,10.0,East,8.1,17.3,N/A,,Clear,80,2013-02-22 03:53:00
6:53 PM,68.0,66.0,93,30.14,10.0,Variable,3.5,-,0.07,Rain,Light Rain,0,2013-02-22 04:53:00
7:53 PM,68.0,64.9,90,30.16,10.0,ENE,5.8,-,0.00,,Partly Cloudy,70,2013-02-22 05:53:00
8:53 PM,68.0,64.9,90,30.17,10.0,Variable,3.5,-,0.01,,Mostly Cloudy,0,2013-02-22 06:53:00
9:53 PM,68.0,64.9,90,30.17,10.0,Variable,4.6,-,N/A,,Partly Cloudy,0,2013-02-22 07:53:00
10:53 PM,66.9,64.9,93,30.17,10.0,Variable,3.5,-,0.01,Rain,Light Rain,0,2013-02-22 08:53:00
11:53 PM,66.9,64.9,93,30.18,10.0,ENE,3.5,-,0.00,,Scattered Clouds,60,2013-02-22 09:53:00